Location: ?????????
(41.2286°N, 23.0068°E)
Time: 09:43:52
(UTC+00:00)

SJ 16-02 - Pass Details

Date: 08 November 2025
Orbit: 585 x 594 km, 75.0° (Epoch: 05 December)

Event Time Altitude Azimuth Distance (km) Brightness Sun altitude
Rises 04:27:16 0° 345° (NNW) 2,839 4.5 -8.0°
Reaches altitude 10° 04:29:32 10° 350° (N) 1,931 3.7 -7.6°
Maximum altitude 04:33:47 57° 69° (ENE) 698 2.0 -6.9°
Drops below altitude 10° 04:37:58 10° 149° (SSE) 1,910 4.7 -6.1°
Sets 04:40:12 0° 154° (SSE) 2,804 5.5 -5.7°
